Terminal Aerodrome Forecast
Issued by NWS

Home | Current Version | Previous Version | Text Only | Print | Product List | Glossary On
Versions: 1 2 3 4 5 6 7 8 9 10 11 12 13 14 15 16 17 18 19 20 21 22 23 24 25 26 27 28
150
FTUS46 KSGX 141730
TAFSAN
TAF
KSAN 141730Z 1418/1524 VRB04KT 5SM BR FEW005
     FM142100 31009KT P6SM SKC
     FM150000 VRB04KT P6SM SKC=

USA.gov is the U.S. government's official web portal to all federal, state and local government web resources and services.